Hourly Data Report for October 18, 2005

TORONTO CITY
ONTARIO

43°40'00.000" N
79°24'00.000" W
112.50 m
6158355
71508
XTO

Download Data

Hourly Data (October 2005)
Hourly Data Report for October 18, 2005
TIME
LST
Temp Definition
°C
Dew Point Definition
°C
Rel Hum Definition
%
Precip. Amount Definition
mm

Wind Dir Definition
10's deg

Wind Spd Definition
km/h
Visibility Definition
km
Stn Press Definition
kPa
Hmdx Definition


Wind Chill Definition


Weather Definition


00:00 11.6 10.2 91   LegendMM LegendMM   98.87     LegendNANA
01:00 11.7 10.3 91   LegendMM LegendMM   98.80     LegendNANA
02:00 11.8 10.4 91   LegendMM LegendMM   98.79     LegendNANA
03:00 12.3 10.9 91   LegendMM LegendMM   98.78     LegendNANA
04:00 12.0 10.8 92   LegendMM LegendMM   98.82     LegendNANA
05:00 12.2 10.8 91   LegendMM LegendMM   98.83     LegendNANA
06:00 11.9 10.5 91   LegendMM LegendMM   98.86     LegendNANA
07:00 11.7 10.1 90   LegendMM LegendMM   98.92     LegendNANA
08:00 12.6 9.0 79   LegendMM LegendMM   98.97     LegendNANA
09:00 13.2 8.7 74   LegendMM LegendMM   99.00     LegendNANA
10:00 13.7 9.2 74   LegendMM LegendMM   99.04     LegendNANA
11:00 13.6 7.5 67   LegendMM LegendMM   99.13     LegendNANA
12:00 13.8 7.3 65   LegendMM LegendMM   99.16     LegendNANA
13:00 14.0 7.0 63   LegendMM LegendMM   99.22     LegendNANA
14:00 14.3 6.9 61   LegendMM LegendMM   99.26     LegendNANA
15:00 14.3 6.5 59   LegendMM LegendMM   99.34     LegendNANA
16:00 13.8 6.6 62   LegendMM LegendMM   99.42     LegendNANA
17:00 13.1 6.0 62   LegendMM LegendMM   99.52     LegendNANA
18:00 12.6 5.6 62   LegendMM LegendMM   99.61     LegendNANA
19:00 11.6 5.6 67   LegendMM LegendMM   99.66     LegendNANA
20:00 11.4 5.8 68   LegendMM LegendMM   99.74     LegendNANA
21:00 11.5 5.7 68   LegendMM LegendMM   99.76     LegendNANA
22:00 10.0 5.7 75   LegendMM LegendMM   99.76     LegendNANA
23:00 9.9 6.1 77   LegendMM LegendMM   99.74     LegendNANA

Notes on Data Quality.

Legend

  • E = Estimated
  • M = Missing
  • NA = Not Available*
  • [empty] = Indicates an unobserved value
Date modified: